This is the latest recevied weather packets stored in our database for station/object KB3HHA-13. If no packets are shown the sender has not sent any weather packets the latest 10 day(s).
| Time | Temp. | Humidity | Pressure | Rain* | Wind** | Luminosity | Snow |
|---|---|---|---|---|---|---|---|
| 1777694521 | 12.78° C | 77% | 1012.8 hPa | 0 mm | - | - | - |
| 1777694220 | 12.78° C | 76% | 1012.7 hPa | 0 mm | - | - | - |
| 1777693920 | 12.78° C | 75% | 1012.7 hPa | 0 mm | - | - | - |
| 1777693621 | 12.78° C | 75% | 1012.8 hPa | 0 mm | - | - | - |
| 1777693321 | 12.78° C | 75% | 1012.8 hPa | 0 mm | - | - | - |
| 1777693021 | 13.33° C | 74% | 1012.7 hPa | 0 mm | - | - | - |
| 1777692720 | 13.33° C | 75% | 1012.5 hPa | 0 mm | - | - | - |
| 1777692420 | 13.89° C | 73% | 1012.4 hPa | 0 mm | - | - | - |
| 1777692121 | 13.89° C | 71% | 1012.4 hPa | 0 mm | - | - | - |
| 1777691822 | 13.89° C | 70% | 1012.5 hPa | 0 mm | - | - | - |
| 1777691521 | 13.89° C | 67% | 1012.4 hPa | 0 mm | - | - | - |
| 1777691222 | 13.89° C | 69% | 1012.4 hPa | 0 mm | - | - | - |
| 1777690922 | 13.89° C | 70% | 1012.2 hPa | 0 mm | - | - | - |
| 1777690634 | 13.89° C | 70% | 1011.9 hPa | 0 mm | - | - | - |
| 1777690321 | 13.89° C | 71% | 1011.6 hPa | 0 mm | - | - | - |
| 1777690021 | 13.89° C | 70% | 1011.5 hPa | 0 mm | - | - | - |
| 1777689720 | 13.89° C | 69% | 1011.6 hPa | 0 mm | - | - | - |
| 1777689422 | 13.89° C | 69% | 1011.5 hPa | 0 mm | - | - | - |
| 1777689122 | 14.44° C | 67% | 1011.5 hPa | 0 mm | - | - | - |
| 1777688821 | 14.44° C | 64% | 1011.5 hPa | 0 mm | - | - | - |
| 1777688221 | 14.44° C | 62% | 1011.5 hPa | 0 mm | - | - | - |
| 1777687920 | 14.44° C | 63% | 1011.5 hPa | 0 mm | - | - | - |
| 1777687621 | 14.44° C | 63% | 1011.3 hPa | 0 mm | - | - | - |
| 1777687320 | 14.44° C | 62% | 1011.4 hPa | 0 mm | - | - | - |
| 1777687020 | 14.44° C | 65% | 1011.4 hPa | 0 mm | - | - | - |
* Rain latest hour (hover to see other rain measurements)
** Current wind speed in m/s (hover to see current wind gust speed)